Regional Weather Roundup
Issued by NWS

Home | Current Version | Previous Version | Graphics & Text | Print | Product List | Glossary Off
Versions: 1 2 3 4 5 6 7 8 9 10 11 12 13 14 15 16 17 18 19 20 21 22 23 24 25 26 27 28

000
ASUS45 KSLC 271610
RWRUT

UTAH REGIONAL WEATHER ROUNDUP
NATIONAL WEATHER SERVICE SALT LAKE CITY UT
1000 AM MDT SUN MAY 27 2018

UTZ001>011-023>025-271700-

NORTHERN UTAH

CITY           SKY/WX    TMP DP  RH WIND       PRES   REMARKS
BRIGHAM CITY   PTSUNNY   58  47  67 N3        29.95R
HILL AFB       CLOUDY    58  47  66 S16       29.95R
LOGAN          PTSUNNY   60  47  61 N9        29.93R
OGDEN          NOT AVBL
SALT LAKE CITY LGT RAIN  57  49  74 SW3       29.96R
WENDOVER       CLOUDY    61  40  45 N18       29.97R
HEBER CITY     PTSUNNY   61  41  48 W13       29.96S
WEST JORDAN    CLOUDY    57  48  73 CALM      29.98R

$$

UTZ011>015-024>027-271700-

CENTRAL/NORTHEAST UTAH

CITY           SKY/WX    TMP DP  RH WIND       PRES   REMARKS
PROVO AIRPORT  PTSUNNY   60  48  64 SW12      29.98R
DELTA          CLOUDY    54  41  62 N5        30.00R
PRICE          NOT AVBL
VERNAL         NOT AVBL

$$

UTZ013>016-019>022-027-271700-

SOUTHERN UTAH

CITY           SKY/WX    TMP DP  RH WIND       PRES   REMARKS
BRYCE CANYON   NOT AVBL
CEDAR CITY     NOT AVBL
MILFORD        NOT AVBL
ST GEORGE      MOSUNNY   70  31  23 VRB3      29.91R
HANKSVILLE     SUNNY     70  27  19 S6        29.94S
BLANDING         N/A     64  22  20 S6        30.09S

$$

REGIONAL REPORTS     COLORADO/ARIZONA

CITY           SKY/WX    TMP DP  RH WIND       PRES   REMARKS
CRAIG, CO      NOT AVBL
GRAND JUNCTION NOT AVBL
RIFLE, CO      NOT AVBL
MONTROSE, CO   NOT AVBL
CORTEZ, CO     NOT AVBL
COLORADO CITY    N/A     68  32  26 CALM      30.00S
PAGE, AZ       NOT AVBL
GRAND CANYON   SUNNY     57  26  30 SE5       30.05S
KINGMAN, AZ    SUNNY     72  34  24 SW10      29.94R
FLAGSTAFF, AZ  SUNNY     56  26  31 SW8       30.06S

$$

REGIONAL REPORTS    NEVADA/IDAHO/WYOMING

CITY           SKY/WX    TMP DP  RH WIND       PRES   REMARKS
LAS VEGAS, NV  MOSUNNY   77  40  26 N6        29.86R
ELY, NY        NOT AVBL
ELKO, NV       PTSUNNY   54  47  77 SW12      30.04S
POCATELLO, ID  PTSUNNY   54  49  83 SW16      29.98R THUNDER
FORT BRIDGER,    N/A     59  38  46 CALM      30.04R
EVANSTON, WY   NOT AVBL
ROCK SPRINGS,  SUNNY     65  22  19 SE16G22   30.01R

$$




USA.gov is the U.S. government's official web portal to all federal, state and local government web resources and services.